UPS2095 KDFW-KORD

Flight info

Callsign UPS2095
Flight time 1h 29m
Altitude 35000
Route AKUNA9 MLC SGF WELTS TRTLL6
Aircraft MD11/H-SDE1E2E3FGHIJ2J3J4J5M1RWXYZ/LB1D1

Departure

Time 2026-05-08 03:57
Airport Dallas Fort Worth International Airport (KDFW)

Arrival

Time 2026-05-08 05:26
Airport Chicago O'Hare International Airport (KORD)
Time Latitude Longitude Altitude Speed Heading
2026-05-08 03:19 32.91536 -97.06029 619 ft 0 kts 219°
2026-05-08 03:50 32.91542 -97.06023 619 ft 2 kts 205°
2026-05-08 03:51 32.91557 -97.06020 619 ft 2 kts 176°
2026-05-08 03:51 32.91572 -97.06024 619 ft 2 kts 151°
2026-05-08 03:51 32.91583 -97.06035 619 ft 2 kts 126°
2026-05-08 03:51 32.91590 -97.06051 619 ft 2 kts 101°
2026-05-08 03:52 32.91591 -97.06063 620 ft 0 kts 88°
2026-05-08 03:52 32.91591 -97.06065 620 ft 0 kts 87°
2026-05-08 03:54 32.91591 -97.06062 620 ft 1 kts 87°
2026-05-08 03:54 32.91588 -97.06002 618 ft 12 kts 94°
2026-05-08 03:54 32.91577 -97.05881 616 ft 16 kts 97°
2026-05-08 03:54 32.91568 -97.05737 611 ft 19 kts 90°
2026-05-08 03:55 32.91566 -97.05566 607 ft 21 kts 90°
2026-05-08 03:55 32.91566 -97.05379 604 ft 22 kts 90°
2026-05-08 03:55 32.91566 -97.05244 602 ft 9 kts 90°
2026-05-08 03:55 32.91565 -97.05189 601 ft 7 kts 90°
2026-05-08 03:56 32.91561 -97.05109 600 ft 10 kts 114°
2026-05-08 03:56 32.91494 -97.05077 600 ft 13 kts 176°
2026-05-08 03:56 32.91280 -97.05076 602 ft 63 kts 180°
2026-05-08 03:56 32.90587 -97.05080 613 ft 133 kts 180°
2026-05-08 03:57 32.89451 -97.05081 653 ft 183 kts 179°
2026-05-08 03:57 32.88205 -97.05088 1252 ft 182 kts 179°
2026-05-08 03:57 32.86937 -97.05082 1948 ft 182 kts 178°
2026-05-08 03:57 32.85690 -97.05223 2621 ft 184 kts 194°
2026-05-08 03:58 32.84448 -97.05613 3180 ft 189 kts 192°
2026-05-08 03:58 32.83173 -97.06068 3779 ft 192 kts 195°
2026-05-08 03:58 32.81847 -97.06533 4215 ft 208 kts 195°
2026-05-08 03:58 32.80351 -97.07037 4552 ft 233 kts 196°
2026-05-08 03:59 32.78830 -97.07842 5067 ft 250 kts 214°
2026-05-08 03:59 32.77548 -97.09225 5903 ft 255 kts 234°
2026-05-08 03:59 32.76740 -97.11087 6830 ft 255 kts 255°
2026-05-08 03:59 32.76485 -97.13153 7727 ft 257 kts 262°
2026-05-08 04:00 32.76251 -97.15269 8465 ft 267 kts 264°
2026-05-08 04:00 32.76402 -97.17463 9403 ft 267 kts 280°
2026-05-08 04:00 32.76821 -97.19647 10110 ft 277 kts 280°
2026-05-08 04:00 32.77410 -97.21835 10782 ft 290 kts 296°
2026-05-08 04:01 32.78653 -97.23868 11066 ft 320 kts 310°
2026-05-08 04:01 32.80417 -97.25684 11193 ft 354 kts 322°
2026-05-08 04:01 32.82731 -97.27127 11308 ft 388 kts 335°
2026-05-08 04:01 32.85291 -97.28198 11898 ft 401 kts 339°
2026-05-08 04:02 32.88104 -97.28769 12593 ft 418 kts 355°
2026-05-08 04:02 32.91050 -97.28494 13436 ft 426 kts
2026-05-08 04:02 32.94031 -97.27977 14244 ft 432 kts
2026-05-08 04:02 32.97002 -97.27450 14963 ft 439 kts
2026-05-08 04:03 33.00005 -97.26387 15663 ft 452 kts 18°
2026-05-08 04:03 33.05393 -97.22226 16980 ft 474 kts 38°
2026-05-08 04:03 33.07870 -97.19601 17647 ft 479 kts 39°
2026-05-08 04:04 33.10396 -97.16966 18280 ft 485 kts 38°
2026-05-08 04:04 33.12978 -97.14327 18996 ft 489 kts 37°
2026-05-08 04:04 33.15576 -97.11710 19644 ft 494 kts 36°
2026-05-08 04:04 33.18226 -97.09058 20277 ft 498 kts 36°
2026-05-08 04:05 33.20925 -97.06370 20884 ft 503 kts 36°
2026-05-08 04:05 33.23610 -97.03694 21536 ft 507 kts 36°
2026-05-08 04:05 33.26331 -97.00980 22173 ft 510 kts 35°
2026-05-08 04:05 33.29092 -96.98229 22708 ft 516 kts 35°
2026-05-08 04:06 33.31859 -96.95475 23338 ft 519 kts 35°
2026-05-08 04:06 33.34653 -96.92696 23796 ft 525 kts 35°
2026-05-08 04:06 33.37481 -96.89879 24250 ft 531 kts 35°
2026-05-08 04:06 33.40339 -96.87036 24677 ft 537 kts 34°
2026-05-08 04:07 33.43245 -96.84147 25060 ft 545 kts 34°
2026-05-08 04:07 33.46277 -96.81438 25390 ft 545 kts 26°
2026-05-08 04:07 33.49575 -96.79188 25859 ft 544 kts 21°
2026-05-08 04:07 33.52953 -96.77093 26275 ft 548 kts 21°
2026-05-08 04:08 33.56405 -96.74941 26746 ft 553 kts 20°
2026-05-08 04:08 33.59779 -96.72807 27321 ft 555 kts 21°
2026-05-08 04:08 33.63208 -96.70618 27797 ft 559 kts 21°
2026-05-08 04:08 33.66640 -96.68407 28403 ft 559 kts 21°
2026-05-08 04:09 33.70105 -96.66165 28995 ft 560 kts 20°
2026-05-08 04:09 33.73546 -96.63944 29510 ft 562 kts 20°
2026-05-08 04:09 33.76994 -96.61722 30141 ft 561 kts 20°
2026-05-08 04:09 33.80423 -96.59514 30716 ft 562 kts 20°
2026-05-08 04:10 33.83889 -96.57284 31222 ft 563 kts 20°
2026-05-08 04:10 33.87351 -96.55053 31797 ft 562 kts 20°
2026-05-08 04:10 33.90826 -96.52808 32326 ft 562 kts 20°
2026-05-08 04:10 33.94246 -96.50603 32769 ft 562 kts 20°
2026-05-08 04:11 33.97704 -96.48373 33211 ft 563 kts 20°
2026-05-08 04:11 34.01198 -96.46129 33492 ft 567 kts 20°
2026-05-08 04:11 34.04680 -96.43878 33978 ft 566 kts 20°
2026-05-08 04:11 34.08145 -96.41539 34405 ft 571 kts 24°
2026-05-08 04:12 34.11451 -96.38868 35006 ft 571 kts 27°
2026-05-08 04:12 34.14711 -96.36106 35039 ft 573 kts 27°
2026-05-08 04:12 34.21281 -96.30603 35027 ft 568 kts 27°
2026-05-08 04:13 34.27830 -96.25200 35028 ft 569 kts 26°
2026-05-08 04:13 34.34404 -96.19797 35039 ft 571 kts 27°
2026-05-08 04:14 34.40972 -96.14392 35018 ft 570 kts 26°
2026-05-08 04:14 34.47545 -96.08991 35018 ft 569 kts 26°
2026-05-08 04:15 34.54108 -96.03604 35039 ft 570 kts 26°
2026-05-08 04:15 34.60719 -95.98171 35044 ft 570 kts 26°
2026-05-08 04:16 34.67306 -95.92767 35032 ft 569 kts 25°
2026-05-08 04:16 34.73855 -95.87395 35036 ft 569 kts 25°
2026-05-08 04:17 34.80419 -95.81989 35025 ft 571 kts 26°
2026-05-08 04:17 34.86968 -95.76299 35021 ft 576 kts 29°
2026-05-08 04:18 34.93330 -95.70333 35020 ft 577 kts 30°
2026-05-08 04:18 34.99678 -95.64288 35025 ft 576 kts 30°
2026-05-08 04:19 35.06023 -95.58259 35046 ft 575 kts 29°
2026-05-08 04:19 35.12391 -95.52222 35024 ft 576 kts 30°
2026-05-08 04:20 35.18722 -95.46208 35016 ft 576 kts 29°
2026-05-08 04:20 35.25055 -95.40200 35008 ft 575 kts 29°
2026-05-08 04:21 35.31368 -95.34221 34999 ft 573 kts 29°
2026-05-08 04:21 35.37733 -95.28192 35005 ft 573 kts 30°
2026-05-08 04:22 35.44026 -95.22230 35010 ft 573 kts 29°
2026-05-08 04:22 35.50381 -95.16225 35017 ft 574 kts 29°
2026-05-08 04:23 35.56676 -95.10249 35026 ft 575 kts 30°
2026-05-08 04:23 35.62963 -95.04122 35031 ft 575 kts 30°
2026-05-08 04:24 35.69289 -94.97970 35026 ft 573 kts 30°
2026-05-08 04:24 35.75566 -94.91875 35024 ft 574 kts 29°
2026-05-08 04:25 35.81840 -94.85798 35028 ft 571 kts 29°
2026-05-08 04:25 35.88117 -94.79719 35020 ft 571 kts 29°
2026-05-08 04:26 35.94368 -94.73669 35016 ft 574 kts 29°
2026-05-08 04:26 36.00676 -94.67556 35030 ft 573 kts 29°
2026-05-08 04:27 36.06986 -94.61452 35031 ft 572 kts 29°
2026-05-08 04:27 36.13240 -94.55406 35031 ft 570 kts 28°
2026-05-08 04:28 36.19505 -94.49348 35051 ft 569 kts 28°
2026-05-08 04:28 36.25718 -94.43235 35031 ft 570 kts 30°
2026-05-08 04:29 36.31935 -94.37037 35033 ft 569 kts 30°
2026-05-08 04:29 36.38119 -94.30894 35063 ft 570 kts 30°
2026-05-08 04:30 36.44336 -94.24735 35043 ft 569 kts 30°
2026-05-08 04:30 36.50528 -94.18605 35051 ft 569 kts 30°
2026-05-08 04:31 36.56726 -94.12463 35049 ft 568 kts 30°
2026-05-08 04:31 36.62925 -94.06333 35040 ft 567 kts 29°
2026-05-08 04:32 36.69093 -94.00224 35025 ft 566 kts 29°
2026-05-08 04:32 36.75298 -93.94104 35004 ft 566 kts 30°
2026-05-08 04:33 36.81476 -93.87997 35034 ft 569 kts 30°
2026-05-08 04:33 36.87706 -93.81813 35029 ft 569 kts 30°
2026-05-08 04:34 36.93880 -93.75547 35033 ft 566 kts 30°
2026-05-08 04:34 36.99979 -93.69363 35020 ft 566 kts 30°
2026-05-08 04:35 37.06101 -93.63175 35014 ft 567 kts 30°
2026-05-08 04:35 37.12259 -93.56952 35025 ft 565 kts 30°
2026-05-08 04:36 37.18386 -93.50761 35023 ft 561 kts 30°
2026-05-08 04:36 37.24500 -93.44594 35034 ft 560 kts 29°
2026-05-08 04:37 37.30566 -93.38484 35021 ft 561 kts 30°
2026-05-08 04:37 37.36702 -93.32297 34998 ft 561 kts 29°
2026-05-08 04:38 37.42910 -93.26478 35008 ft 555 kts 27°
2026-05-08 04:38 37.49165 -93.20721 35019 ft 555 kts 27°
2026-05-08 04:39 37.55384 -93.14934 35009 ft 554 kts 27°
2026-05-08 04:39 37.61594 -93.09141 35014 ft 554 kts 27°
2026-05-08 04:40 37.67807 -93.03354 35007 ft 553 kts 27°
2026-05-08 04:40 37.74037 -92.97547 35007 ft 553 kts 27°
2026-05-08 04:41 37.80246 -92.91773 35012 ft 550 kts 27°
2026-05-08 04:41 37.86394 -92.86050 35006 ft 549 kts 27°
2026-05-08 04:42 37.92554 -92.80324 35016 ft 550 kts 27°
2026-05-08 04:42 37.98727 -92.74589 34998 ft 547 kts 27°
2026-05-08 04:43 38.04862 -92.68879 34999 ft 546 kts 27°
2026-05-08 04:43 38.10960 -92.63044 35005 ft 546 kts 28°
2026-05-08 04:44 38.17031 -92.57228 35010 ft 545 kts 27°
2026-05-08 04:44 38.23128 -92.51406 34987 ft 546 kts 27°
2026-05-08 04:45 38.29237 -92.45578 34983 ft 545 kts 27°
2026-05-08 04:45 38.35343 -92.39757 34973 ft 545 kts 27°
2026-05-08 04:46 38.41411 -92.33976 34960 ft 544 kts 28°
2026-05-08 04:46 38.47530 -92.28146 34974 ft 545 kts 27°
2026-05-08 04:47 38.53643 -92.22326 35056 ft 546 kts 27°
2026-05-08 04:47 38.56696 -92.19421 34875 ft 546 kts 27°
2026-05-08 04:47 38.59755 -92.16505 34967 ft 545 kts 27°
2026-05-08 04:48 38.65850 -92.10704 34991 ft 545 kts 27°
2026-05-08 04:48 38.71969 -92.04884 34972 ft 546 kts 27°
2026-05-08 04:49 38.78036 -91.98991 34983 ft 546 kts 28°
2026-05-08 04:49 38.84094 -91.93106 34971 ft 543 kts 27°
2026-05-08 04:50 38.90120 -91.87268 34968 ft 543 kts 27°
2026-05-08 04:50 38.96175 -91.81397 34951 ft 543 kts 28°
2026-05-08 04:51 39.01934 -91.74960 34966 ft 555 kts 37°
2026-05-08 04:51 39.07019 -91.67420 34954 ft 563 kts 43°
2026-05-08 04:52 39.11945 -91.59570 34954 ft 561 kts 44°
2026-05-08 04:52 39.16875 -91.51756 34961 ft 559 kts 43°
2026-05-08 04:53 39.21796 -91.43986 34957 ft 558 kts 43°
2026-05-08 04:53 39.26740 -91.36193 34938 ft 556 kts 43°
2026-05-08 04:54 39.31632 -91.28496 34950 ft 555 kts 43°
2026-05-08 04:54 39.36537 -91.20785 34956 ft 556 kts 43°
2026-05-08 04:55 39.41434 -91.13094 34948 ft 556 kts 43°
2026-05-08 04:55 39.46361 -91.05362 34945 ft 555 kts 43°
2026-05-08 04:56 39.51295 -90.97620 34947 ft 556 kts 43°
2026-05-08 04:56 39.56207 -90.89924 34943 ft 554 kts 43°
2026-05-08 04:57 39.61033 -90.82113 34962 ft 554 kts 44°
2026-05-08 04:57 39.65850 -90.74295 34969 ft 553 kts 43°
2026-05-08 04:58 39.70665 -90.66524 34959 ft 553 kts 43°
2026-05-08 04:58 39.75488 -90.58743 35125 ft 551 kts 43°
2026-05-08 04:59 39.77916 -90.54835 34871 ft 551 kts 43°
2026-05-08 04:59 39.80324 -90.50958 35051 ft 551 kts 43°
2026-05-08 04:59 39.85118 -90.43246 34955 ft 548 kts 43°
2026-05-08 05:00 39.89946 -90.35487 34950 ft 548 kts 43°
2026-05-08 05:00 39.94763 -90.27760 34955 ft 547 kts 43°
2026-05-08 05:01 40.00091 -90.20905 34945 ft 534 kts 31°
2026-05-08 05:01 40.05792 -90.14701 34949 ft 532 kts 31°
2026-05-08 05:02 40.11398 -90.08446 34966 ft 531 kts 32°
2026-05-08 05:02 40.16995 -90.02132 34956 ft 528 kts 32°
2026-05-08 05:03 40.22556 -89.95853 34954 ft 526 kts 32°
2026-05-08 05:03 40.28113 -89.89589 34956 ft 526 kts 32°
2026-05-08 05:04 40.33655 -89.83348 34968 ft 525 kts 32°
2026-05-08 05:04 40.39162 -89.77068 34960 ft 524 kts 33°
2026-05-08 05:05 40.44669 -89.70728 34969 ft 523 kts 33°
2026-05-08 05:05 40.50152 -89.64432 34950 ft 520 kts 33°
2026-05-08 05:06 40.55617 -89.58175 34962 ft 520 kts 33°
2026-05-08 05:06 40.61056 -89.51938 34930 ft 517 kts 33°
2026-05-08 05:07 40.66504 -89.45702 34956 ft 517 kts 33°
2026-05-08 05:07 40.71920 -89.39506 34954 ft 516 kts 33°
2026-05-08 05:08 40.74618 -89.36420 34519 ft 517 kts 34°
2026-05-08 05:08 40.77311 -89.33221 33727 ft 519 kts 36°
2026-05-08 05:08 40.79979 -89.29980 32831 ft 518 kts 36°
2026-05-08 05:08 40.82630 -89.26762 31945 ft 516 kts 36°
2026-05-08 05:09 40.85285 -89.23552 31058 ft 515 kts 36°
2026-05-08 05:09 40.87912 -89.20383 30195 ft 514 kts 36°
2026-05-08 05:09 40.90541 -89.17221 29351 ft 514 kts 36°
2026-05-08 05:09 40.93209 -89.14015 28503 ft 516 kts 36°
2026-05-08 05:10 40.95880 -89.10809 27656 ft 517 kts 36°
2026-05-08 05:10 41.01190 -89.04437 26010 ft 519 kts 36°
2026-05-08 05:10 41.03874 -89.01212 25195 ft 518 kts 35°
2026-05-08 05:11 41.06539 -88.98013 24387 ft 513 kts 35°
2026-05-08 05:11 41.09143 -88.94885 23592 ft 503 kts 35°
2026-05-08 05:11 41.11704 -88.91812 22811 ft 493 kts 35°
2026-05-08 05:11 41.14249 -88.88766 22026 ft 485 kts 35°
2026-05-08 05:12 41.16736 -88.85795 21233 ft 480 kts 35°
2026-05-08 05:12 41.19179 -88.82873 20479 ft 474 kts 35°
2026-05-08 05:12 41.21620 -88.79953 19705 ft 469 kts 36°
2026-05-08 05:12 41.24003 -88.77059 18945 ft 464 kts 36°
2026-05-08 05:13 41.26382 -88.74151 18190 ft 458 kts 36°
2026-05-08 05:13 41.28717 -88.71305 17463 ft 452 kts 36°
2026-05-08 05:13 41.31011 -88.68516 16693 ft 447 kts 36°
2026-05-08 05:13 41.33300 -88.65733 15954 ft 441 kts 36°
2026-05-08 05:14 41.35553 -88.62997 15192 ft 436 kts 37°
2026-05-08 05:14 41.37754 -88.60327 14463 ft 430 kts 37°
2026-05-08 05:14 41.39991 -88.57652 13828 ft 426 kts 37°
2026-05-08 05:14 41.42166 -88.55065 13293 ft 424 kts 37°
2026-05-08 05:15 41.44387 -88.52425 12830 ft 422 kts 37°
2026-05-08 05:15 41.46546 -88.49851 12444 ft 420 kts 36°
2026-05-08 05:15 41.48738 -88.47237 12136 ft 419 kts 36°
2026-05-08 05:15 41.50917 -88.44639 11770 ft 417 kts 36°
2026-05-08 05:16 41.53044 -88.42100 11420 ft 403 kts 36°
2026-05-08 05:16 41.55098 -88.39645 11138 ft 388 kts 36°
2026-05-08 05:16 41.57078 -88.37285 10896 ft 371 kts 36°
2026-05-08 05:16 41.58946 -88.35062 10774 ft 352 kts 34°
2026-05-08 05:17 41.60836 -88.33079 10614 ft 331 kts 28°
2026-05-08 05:17 41.62770 -88.31560 10356 ft 314 kts 19°
2026-05-08 05:17 41.64753 -88.30513 10159 ft 299 kts 12°
2026-05-08 05:17 41.66708 -88.29664 10046 ft 291 kts 11°
2026-05-08 05:18 41.68612 -88.28831 9877 ft 285 kts 11°
2026-05-08 05:18 41.70463 -88.28007 9517 ft 280 kts 11°
2026-05-08 05:18 41.72310 -88.27172 9233 ft 275 kts 12°
2026-05-08 05:18 41.74097 -88.26360 8956 ft 274 kts 12°
2026-05-08 05:19 41.75923 -88.25526 8610 ft 274 kts 12°
2026-05-08 05:19 41.77732 -88.24696 8252 ft 271 kts 13°
2026-05-08 05:19 41.79488 -88.23889 7914 ft 264 kts 13°
2026-05-08 05:19 41.81246 -88.23081 7605 ft 268 kts 13°
2026-05-08 05:20 41.83036 -88.22264 7247 ft 273 kts 13°
2026-05-08 05:20 41.84822 -88.21446 6863 ft 272 kts 14°
2026-05-08 05:20 41.86588 -88.20633 6460 ft 266 kts 14°
2026-05-08 05:20 41.88344 -88.19943 6054 ft 258 kts
2026-05-08 05:21 41.90095 -88.19662 5671 ft 252 kts
2026-05-08 05:21 41.91825 -88.19511 5268 ft 242 kts 360°
2026-05-08 05:21 41.93471 -88.19397 4895 ft 233 kts 359°
2026-05-08 05:21 41.95049 -88.19120 4520 ft 227 kts 20°
2026-05-08 05:22 41.96255 -88.17860 4320 ft 214 kts 57°
2026-05-08 05:22 41.96635 -88.16000 4071 ft 207 kts 85°
2026-05-08 05:22 41.96608 -88.14090 3734 ft 198 kts 90°
2026-05-08 05:22 41.96553 -88.12316 3474 ft 187 kts 89°
2026-05-08 05:23 41.96528 -88.10619 3249 ft 177 kts 86°
2026-05-08 05:23 41.96512 -88.08976 3068 ft 174 kts 88°
2026-05-08 05:23 41.96496 -88.07350 2850 ft 174 kts 88°
2026-05-08 05:23 41.96491 -88.05730 2559 ft 173 kts 87°
2026-05-08 05:24 41.96494 -88.04126 2283 ft 171 kts 87°
2026-05-08 05:24 41.96515 -88.02548 2036 ft 169 kts 85°
2026-05-08 05:24 41.96543 -88.00957 1842 ft 169 kts 86°
2026-05-08 05:24 41.96549 -87.99368 1618 ft 170 kts 88°
2026-05-08 05:25 41.96552 -87.97785 1383 ft 169 kts 88°
2026-05-08 05:25 41.96563 -87.96219 1161 ft 167 kts 89°
2026-05-08 05:25 41.96569 -87.94662 927 ft 166 kts 89°
2026-05-08 05:25 41.96570 -87.93110 713 ft 165 kts 90°
2026-05-08 05:26 41.96566 -87.91666 678 ft 134 kts 89°
2026-05-08 05:26 41.96571 -87.90655 678 ft 80 kts 91°
2026-05-08 05:26 41.96571 -87.90221 678 ft 12 kts 90°
2026-05-08 05:26 41.96553 -87.90161 678 ft 8 kts 136°
2026-05-08 05:27 41.96478 -87.90134 678 ft 13 kts 178°
2026-05-08 05:27 41.96384 -87.90151 678 ft 13 kts 213°
2026-05-08 05:27 41.96319 -87.90250 678 ft 14 kts 230°
2026-05-08 05:27 41.96249 -87.90358 678 ft 15 kts 230°
2026-05-08 05:28 41.96236 -87.90490 678 ft 12 kts 282°
2026-05-08 05:28 41.96226 -87.90583 678 ft 10 kts 254°
2026-05-08 05:28 41.96217 -87.90687 678 ft 11 kts 268°
2026-05-08 05:28 41.96217 -87.90806 678 ft 13 kts 270°
2026-05-08 05:29 41.96216 -87.90894 678 ft 6 kts 269°
2026-05-08 05:29 41.96212 -87.90937 678 ft 3 kts 242°
2026-05-08 05:29 41.96189 -87.90952 678 ft 4 kts 190°
2026-05-08 05:29 41.96164 -87.90955 678 ft 3 kts 182°
2026-05-08 05:30 41.96154 -87.90955 678 ft 1 kts 181°